Tracking 30703 objects as of 14-Jun-2025
HD Live streaming from Space Station
objects crossing your sky now

DELTA 2 R/B(1)

Track DELTA 2 R/B(1) now!
10-day predictions


NORAD ID: 27665
Int'l Code: 2003-005C
Perigee: 795.0 km
Apogee: 806.8 km
Inclination: 39.6 °
Period: 100.7 minutes
Semi major axis: 7171 km
RCS: 9.691 m2 (large)
Launch date: January 29, 2003
Source: United States (US)
Launch site: AIR FORCE EASTERN TEST RANGE (AFETR)

Note: This is a ROCKET BODY
Your satellite tracking list
Your tracking list is empty




NASA's NSSDC Master Catalog

Two Line Element Set (TLE):
1 27665U 03005C   25164.88189094  .00000124  00000-0  81147-4 0  9991
2 27665  39.5772   3.3622 0008204 178.1327 307.8593 14.29399083168446
Source of the keplerian elements: AFSPC